Hourly Data Report for October 09, 2015

All times are specified in Local Standard Time (LST). Add 1 hour to adjust for Daylight Saving Time where and when it is observed.

PETAWAWA AWOS 2
ONTARIO

45°57'00.000" N
77°19'00.000" W
130.10 m
6106396
71625
YWA

Download Data

Hourly Data (October 2015)
Hourly Data Report for October 9, 2015
Temp Definition
°C
Dew Point Temp Definition
°C
Rel Hum Definition
%
Wind Dir Definition
10's deg

Wind Spd Definition
km/h
Visibility Definition
km
Stn Press Definition
kPa
Hmdx Definition


Wind Chill Definition


Weather Definition


TIME
00:00 7.3 4.9 85 11 9 14.5 99.97     Rain
01:00 6.8 5.2 90 12 9 11.3 99.89     Moderate Rain
02:00 6.9 5.4 90 13 13 6.4 99.79     Moderate Rain
03:00 6.6 5.7 94 12 17 3.4 99.64     Heavy Rain
04:00 6.6 5.8 95 15 15 5.6 99.53     Rain
05:00 6.6 6.0 96 13 15 4.0 99.47     Moderate Rain
06:00 6.8 6.3 97 10 11 3.5 99.44     Rain
07:00 6.8 6.3 97 9 11 6.4 99.42     Drizzle
08:00 6.9 6.4 97 9 7 11.3 99.43     Drizzle
09:00 7.4 6.4 93 3 7 14.5 99.42     LegendNANA
10:00 7.2 6.3 94 36 11 5.6 99.43     Drizzle
11:00 7.3 6.0 91 35 13 14.5 99.46     Drizzle
12:00 8.0 5.8 86 31 6 14.5 99.47     LegendNANA
13:00 8.5 7.3 92 33 15 14.5 99.48     Drizzle
14:00 9.7 6.8 82 32 15 14.5 99.50     LegendNANA
15:00 10.1 5.7 74 33 22 14.5 99.57     LegendNANA
16:00 10.0 5.8 75 31 13 14.5 99.68     LegendNANA
17:00 9.3 6.3 82 28 9 14.5 99.75     LegendNANA
18:00 7.7 6.0 89 29 9 14.5 99.83     LegendNANA
19:00 6.3 5.2 93 28 7 14.5 99.92     LegendNANA
20:00 7.7 5.8 88 30 11 14.5 100.05     LegendNANA
21:00 7.6 3.9 77 34 19 14.5 100.17     Drizzle
22:00 6.6 2.3 74 34 13 14.5 100.27     LegendNANA
23:00 5.6 1.6 75 32 17 14.5 100.37     Drizzle

Notes on Data Quality.

Legend

  • E = Estimated
  • M = Missing
  • NA = Not Available
  • ‡ = Partner data that is not subject to review by the National Climate Archives
Date modified: